Location: Fort Worth, Tx
(32.7431°N, 97.3695°W)
Time: 21:39:07
(UTC-05:00)

Tiros 1 - Pass Details

Date: 08 October 2024
Orbit: 622 x 654 km, 48.4° (Epoch: 05 November)

Event Time Altitude Azimuth Distance (km) Brightness Sun altitude
Rises 07:30:41 0° 208° (SSW) 2,940 10.2 -13.0°
Reaches altitude 10° 07:33:10 10° 199° (SSW) 2,028 9.5 -12.5°
Maximum altitude 07:37:25 35° 134° (SE) 1,024 8.6 -11.6°
Drops below altitude 10° 07:41:39 10° 68° (ENE) 2,016 10.9 -10.7°
Sets 07:44:06 0° 60° (ENE) 2,921 11.6 -10.2°
